TimeEDT,TemperatureF,Dew PointF,Humidity,Sea Level PressureIn,VisibilityMPH,Wind Direction,Wind SpeedMPH,Gust SpeedMPH,PrecipitationIn,Events,Conditions,WindDirDegrees,DateUTC
12:16 AM,47.3,47.3,100,29.87,2.5,SSE,8.1,-,N/A,,Mostly Cloudy,150,2013-04-29 04:16:00
12:35 AM,47.1,47.1,100,29.87,1.0,SSE,8.1,-,N/A,,Overcast,150,2013-04-29 04:35:00
12:55 AM,46.6,46.6,100,29.86,0.8,SE,9.2,-,N/A,,Overcast,140,2013-04-29 04:55:00
1:16 AM,45.7,45.7,100,29.87,0.5,SSE,9.2,-,N/A,Fog,Fog,150,2013-04-29 05:16:00
1:35 AM,45.9,45.9,100,29.87,2.0,SSE,5.8,-,N/A,,Overcast,160,2013-04-29 05:35:00
1:56 AM,46.9,46.9,100,29.87,5.0,SE,3.5,-,N/A,,Overcast,140,2013-04-29 05:56:00
2:15 AM,46.9,46.9,100,29.87,5.0,SE,6.9,-,N/A,,Overcast,140,2013-04-29 06:15:00
2:35 AM,46.8,46.8,100,29.87,3.0,SE,4.6,-,N/A,,Overcast,140,2013-04-29 06:35:00
2:56 AM,46.4,46.4,100,29.87,2.5,SE,5.8,-,N/A,,Overcast,140,2013-04-29 06:56:00
3:15 AM,46.4,46.4,100,29.87,2.0,SE,5.8,-,N/A,,Overcast,140,2013-04-29 07:15:00
3:35 AM,45.9,45.9,100,29.87,1.5,SE,4.6,-,N/A,,Overcast,140,2013-04-29 07:35:00
3:56 AM,45.9,45.9,100,29.86,1.2,SE,5.8,-,N/A,,Overcast,140,2013-04-29 07:56:00
4:15 AM,46.0,46.0,100,29.86,1.2,SE,4.6,-,N/A,,Overcast,140,2013-04-29 08:15:00
4:35 AM,46.2,46.2,100,29.85,1.2,SE,5.8,-,N/A,,Overcast,140,2013-04-29 08:35:00
4:55 AM,45.9,45.9,100,29.86,1.2,SSE,3.5,-,N/A,,Overcast,160,2013-04-29 08:55:00
5:15 AM,45.9,45.9,100,29.86,1.0,SSE,4.6,-,N/A,,Overcast,150,2013-04-29 09:15:00
5:35 AM,45.9,45.9,100,29.86,1.2,SE,3.5,-,N/A,,Overcast,140,2013-04-29 09:35:00
5:55 AM,45.5,45.5,100,29.87,1.2,SE,3.5,-,N/A,,Overcast,140,2013-04-29 09:55:00
6:16 AM,45.5,45.5,100,29.87,0.8,SE,5.8,-,N/A,,Overcast,130,2013-04-29 10:16:00
6:35 AM,45.5,45.5,100,29.88,0.8,SSE,3.5,-,N/A,,Overcast,150,2013-04-29 10:35:00
6:55 AM,45.5,45.5,100,29.87,0.5,SE,4.6,-,N/A,Fog,Fog,130,2013-04-29 10:55:00
7:16 AM,45.5,45.5,100,29.88,0.5,Calm,Calm,-,N/A,Fog,Fog,0,2013-04-29 11:16:00
7:35 AM,45.5,45.5,100,29.88,0.5,Calm,Calm,-,N/A,Fog,Fog,0,2013-04-29 11:35:00
7:55 AM,45.9,45.9,100,29.88,0.5,SE,3.5,-,N/A,Fog,Fog,140,2013-04-29 11:55:00
8:16 AM,45.9,45.9,100,29.89,0.8,SE,3.5,-,N/A,,Overcast,140,2013-04-29 12:16:00
8:35 AM,45.7,45.7,100,29.89,0.8,SE,4.6,-,N/A,,Overcast,130,2013-04-29 12:35:00
8:56 AM,46.8,46.8,100,29.89,1.0,SE,5.8,-,N/A,,Overcast,140,2013-04-29 12:56:00
9:15 AM,47.5,47.5,100,29.89,1.2,SSE,5.8,-,N/A,,Overcast,160,2013-04-29 13:15:00
9:35 AM,48.2,48.2,100,29.90,4.0,SSE,4.6,-,N/A,,Overcast,150,2013-04-29 13:35:00
9:56 AM,48.6,48.6,100,29.89,4.0,SSE,6.9,-,N/A,,Overcast,150,2013-04-29 13:56:00
10:15 AM,48.6,48.6,100,29.89,5.0,SSE,6.9,-,N/A,,Overcast,150,2013-04-29 14:15:00
10:35 AM,50.0,48.4,94,29.89,10.0,SE,9.2,-,N/A,,Overcast,140,2013-04-29 14:35:00
10:56 AM,51.1,48.7,92,29.89,10.0,SE,8.1,-,N/A,,Overcast,140,2013-04-29 14:56:00
11:15 AM,53.1,49.8,89,29.88,10.0,SE,8.1,-,N/A,,Mostly Cloudy,140,2013-04-29 15:15:00
11:35 AM,54.1,50.2,86,29.88,10.0,SSE,8.1,-,N/A,,Scattered Clouds,160,2013-04-29 15:35:00
11:56 AM,55.6,50.0,81,29.88,10.0,ESE,10.4,-,N/A,,Scattered Clouds,120,2013-04-29 15:56:00
12:15 PM,55.6,49.8,81,29.88,10.0,SE,9.2,-,N/A,,Clear,140,2013-04-29 16:15:00
12:35 PM,57.0,50.2,78,29.88,10.0,SSE,10.4,-,N/A,,Clear,150,2013-04-29 16:35:00
12:55 PM,55.9,49.6,79,29.87,10.0,SSE,9.2,-,N/A,,Clear,150,2013-04-29 16:55:00
1:15 PM,53.2,49.1,86,29.87,10.0,SE,8.1,-,N/A,,Scattered Clouds,130,2013-04-29 17:15:00
1:36 PM,53.1,48.9,86,29.88,10.0,SE,9.2,-,N/A,,Mostly Cloudy,140,2013-04-29 17:36:00
1:55 PM,51.8,48.6,89,29.88,10.0,SE,8.1,-,N/A,,Overcast,140,2013-04-29 17:55:00
2:15 PM,50.7,48.2,91,29.87,10.0,SE,6.9,-,N/A,Rain,Light Rain,140,2013-04-29 18:15:00
2:36 PM,50.5,49.1,95,29.87,10.0,SE,5.8,-,N/A,Rain,Light Rain,140,2013-04-29 18:36:00
2:55 PM,50.5,49.5,96,29.87,10.0,ESE,9.2,-,N/A,,Light Drizzle,120,2013-04-29 18:55:00
3:15 PM,50.4,49.5,97,29.87,10.0,SE,10.4,18.4,N/A,,Overcast,130,2013-04-29 19:15:00
3:36 PM,52.0,50.2,94,29.86,10.0,ESE,8.1,-,N/A,,Overcast,120,2013-04-29 19:36:00
3:55 PM,53.1,50.7,92,29.86,10.0,ESE,10.4,18.4,N/A,,Overcast,120,2013-04-29 19:55:00
4:16 PM,53.8,50.9,90,29.86,10.0,SE,10.4,-,N/A,,Overcast,130,2013-04-29 20:16:00
4:35 PM,52.2,50.2,93,29.86,10.0,ESE,11.5,18.4,N/A,Rain,Light Rain,120,2013-04-29 20:35:00
4:55 PM,51.8,50.4,95,29.87,10.0,SE,10.4,-,N/A,,Drizzle,140,2013-04-29 20:55:00
5:16 PM,51.1,50.4,97,29.87,10.0,SSE,8.1,-,N/A,Rain,Rain,150,2013-04-29 21:16:00
5:35 PM,50.4,50.0,99,29.88,7.0,SSE,8.1,-,N/A,Rain,Light Rain,150,2013-04-29 21:35:00
5:55 PM,49.3,49.3,100,29.88,10.0,SSE,10.4,18.4,N/A,Rain,Rain,150,2013-04-29 21:55:00
6:16 PM,48.4,48.4,100,29.88,7.0,SE,9.2,-,N/A,Rain,Light Rain,140,2013-04-29 22:16:00
6:35 PM,47.7,47.7,100,29.88,7.0,SE,10.4,16.1,N/A,Rain,Light Rain,140,2013-04-29 22:35:00
6:55 PM,46.8,46.8,100,29.88,5.0,SSE,10.4,16.1,N/A,Rain,Light Rain,150,2013-04-29 22:55:00
7:15 PM,47.5,47.5,100,29.87,7.0,SE,10.4,19.6,N/A,Rain,Light Rain,140,2013-04-29 23:15:00
7:35 PM,47.5,47.5,100,29.88,7.0,SE,11.5,18.4,N/A,,Light Drizzle,140,2013-04-29 23:35:00
7:56 PM,47.3,47.3,100,29.88,1.5,SE,11.5,17.3,N/A,,Overcast,140,2013-04-29 23:56:00
8:15 PM,48.2,48.2,100,29.87,10.0,SE,9.2,16.1,N/A,,Overcast,130,2013-04-30 00:15:00
8:35 PM,48.2,48.2,100,29.88,10.0,SE,10.4,16.1,N/A,,Overcast,140,2013-04-30 00:35:00
8:56 PM,47.7,47.7,100,29.89,5.0,SSE,10.4,-,N/A,,Overcast,150,2013-04-30 00:56:00
9:15 PM,46.9,46.9,100,29.89,4.0,SE,8.1,-,N/A,,Overcast,130,2013-04-30 01:15:00
9:35 PM,47.3,47.3,100,29.90,4.0,SSE,11.5,17.3,N/A,,Overcast,150,2013-04-30 01:35:00
9:56 PM,46.8,46.8,100,29.91,2.0,SSE,8.1,-,N/A,,Overcast,150,2013-04-30 01:56:00
10:15 PM,46.9,46.9,100,29.91,5.0,SSE,9.2,-,N/A,,Overcast,150,2013-04-30 02:15:00
10:36 PM,47.3,47.3,100,29.91,7.0,SE,9.2,-,N/A,,Overcast,140,2013-04-30 02:36:00
10:55 PM,47.5,47.5,100,29.90,7.0,SSE,9.2,-,N/A,,Overcast,150,2013-04-30 02:55:00
11:35 PM,48.9,48.9,100,29.91,5.0,SSE,8.1,-,N/A,,Overcast,150,2013-04-30 03:35:00
11:55 PM,49.1,49.1,100,29.91,5.0,SSE,9.2,-,N/A,,Overcast,150,2013-04-30 03:55:00